Date String (YYYY-MM-DD hh:mm:ss) UTC,Instrument flags,absolute air pressure of the measurement (hPa),sample flow rate (lpm),inlet stack bypass flow (lpm),air temperature of the measurement (°C),ambient temperature measured by the external sensor (°C),aerosol sample conditioner tube jacket temperature (°C),OPC LED temperature (°C),internal box temperature (°C),relative humidity of the measurement (%),span deviation,mass concentration of particles derived from Lorenz-Mie calculation of OPC scattering (μg/m³),mass concentration of particles derived from Lorenz-Mie calculation of OPC scattering (μg/m³),mass concentration of particles derived from Lorenz-Mie calculation of OPC scattering (μg/m³)
DateTimeUTC,F1_M11,P_M11,Q1_M11,Q2_M11,T1_M11,T2_M11,T3_M11,T4_M11,T5_M11,U1_M11,ZSPAN_M11,X0_M11,X2_M11,X1_M11
2024-01-05 20:00:00,SystemResetWarning,0821.3,5.00,000.00,021.1,020.5,000.0,029.3,022.4,14.0,0000.0,0008.30,0003.91,0003.63
2024-01-05 20:01:00,SystemResetWarning,0821.3,5.00,000.00,021.1,020.5,000.0,029.4,022.4,14.0,0000.0,0008.48,0003.93,0003.65
2024-01-05 20:02:00,SystemResetWarning,0821.3,5.00,000.00,021.1,020.5,000.0,029.4,022.5,14.0,0000.0,0008.57,0003.94,0003.66
2024-01-05 20:03:00,SystemResetWarning,0821.3,5.00,000.00,021.1,020.6,000.0,029.4,022.5,13.9,0000.0,0008.80,0003.97,0003.67
2024-01-05 20:04:00,SystemResetWarning,0821.3,5.01,000.00,021.1,020.6,000.0,029.4,022.5,13.8,0000.0,0008.86,0003.99,0003.69
2024-01-05 20:05:00,SystemResetWarning,0821.3,5.01,000.00,021.2,020.6,000.0,029.4,022.5,13.7,0000.0,0008.88,0003.99,0003.69
2024-01-05 20:06:00,SystemResetWarning,0821.3,5.00,000.00,021.2,020.6,000.0,029.4,022.5,13.7,0000.0,0008.97,0004.01,0003.70
2024-01-05 20:07:00,SystemResetWarning,0821.3,4.99,000.00,021.2,020.6,000.0,029.4,022.5,13.6,0000.0,0008.93,0004.06,0003.72
2024-01-05 20:08:00,SystemResetWarning,0821.3,4.99,000.00,021.2,020.6,000.0,029.4,022.5,13.6,0000.0,0009.02,0004.10,0003.73
2024-01-05 20:09:00,SystemResetWarning,0821.3,5.00,000.00,021.2,020.6,000.0,029.4,022.5,13.6,0000.0,0009.11,0004.10,0003.74
2024-01-05 20:10:00,SystemResetWarning,0821.3,5.01,000.00,021.2,020.6,000.0,029.4,022.5,13.6,0000.0,0009.47,0004.09,0003.74
2024-01-05 20:11:00,SystemResetWarning,0821.3,5.00,000.00,021.2,020.6,000.0,029.4,022.5,13.6,0000.0,0008.81,0004.09,0003.74
2024-01-05 20:12:00,SystemResetWarning,0821.3,5.00,000.00,021.2,020.6,000.0,029.4,022.5,13.6,0000.0,0008.18,0004.07,0003.72
2024-01-05 20:13:00,SystemResetWarning,0821.3,5.00,000.00,021.2,020.6,000.0,029.5,022.5,13.6,0000.0,0007.87,0004.06,0003.71
2024-01-05 20:14:00,SystemResetWarning,0821.3,5.00,000.00,021.2,020.6,000.0,029.5,022.5,13.5,0000.0,0007.80,0004.05,0003.70
2024-01-05 20:15:00,SystemResetWarning,0821.3,5.00,000.00,021.2,020.7,000.0,029.5,022.5,13.4,0000.0,0007.53,0004.03,0003.69
2024-01-05 20:16:00,SystemResetWarning,0821.3,5.00,000.00,021.2,020.6,000.0,029.5,022.5,13.4,0000.0,0007.58,0004.02,0003.69
2024-01-05 20:17:00,SystemResetWarning,0821.3,5.00,000.00,021.2,020.6,000.0,029.5,022.5,13.4,0000.0,0007.64,0004.01,0003.69
2024-01-05 20:18:00,SystemResetWarning,0821.2,5.00,000.00,021.2,020.6,000.0,029.5,022.5,13.3,0000.0,0007.79,0004.02,0003.69
2024-01-05 20:19:00,SystemResetWarning,0821.3,4.99,000.00,021.2,020.7,000.0,029.5,022.5,13.3,0000.0,0007.76,0004.00,0003.69
2024-01-05 20:20:00,SystemResetWarning,0821.2,5.01,000.00,021.2,020.7,000.0,029.5,022.5,13.2,0000.0,0007.73,0004.00,0003.69
2024-01-05 20:21:00,SystemResetWarning,0821.2,5.01,000.00,021.3,020.7,000.0,029.5,022.5,13.2,0000.0,0007.42,0004.01,0003.68
2024-01-05 20:22:00,SystemResetWarning,0821.2,5.00,000.00,021.3,020.7,000.0,029.5,022.5,13.2,0000.0,0007.40,0004.01,0003.68
2024-01-05 20:23:00,SystemResetWarning,0821.2,5.00,000.00,021.3,020.7,000.0,029.5,022.5,13.3,0000.0,0007.48,0004.05,0003.70
2024-01-05 20:24:00,SystemResetWarning,0821.2,5.00,000.00,021.3,020.7,000.0,029.5,022.5,13.3,0000.0,0007.51,0004.06,0003.71
2024-01-05 20:25:00,SystemResetWarning,0821.1,4.99,000.00,021.3,020.6,000.0,029.5,022.5,13.3,0000.0,0007.66,0004.07,0003.72
2024-01-05 20:26:00,SystemResetWarning,0821.2,4.99,000.00,021.3,020.6,000.0,029.5,022.5,13.4,0000.0,0007.85,0004.08,0003.73
2024-01-05 20:27:00,SystemResetWarning,0821.2,5.00,000.00,021.3,020.6,000.0,029.5,022.5,13.4,0000.0,0007.84,0004.09,0003.74
2024-01-05 20:28:00,SystemResetWarning,0821.2,5.00,000.00,021.3,020.6,000.0,029.5,022.5,13.4,0000.0,0007.45,0004.08,0003.74
2024-01-05 20:29:00,SystemResetWarning,0821.2,5.01,000.00,021.3,020.6,000.0,029.5,022.5,13.3,0000.0,0007.32,0004.09,0003.75
2024-01-05 20:30:00,SystemResetWarning,0821.2,5.01,000.00,021.3,020.7,000.0,029.5,022.5,13.3,0000.0,0007.34,0004.11,0003.75
2024-01-05 20:31:00,SystemResetWarning,0821.2,5.00,000.00,021.3,020.7,000.0,029.5,022.6,13.3,0000.0,0007.35,0004.11,0003.75
2024-01-05 20:32:00,SystemResetWarning,0821.2,4.99,000.00,021.3,020.7,000.0,029.5,022.6,13.4,0000.0,0007.29,0004.11,0003.76
2024-01-05 20:33:00,SystemResetWarning,0821.2,5.00,000.00,021.3,020.7,000.0,029.6,022.6,13.4,0000.0,0007.30,0004.13,0003.77
2024-01-05 20:34:00,SystemResetWarning,0821.2,5.00,000.00,021.3,020.7,000.0,029.6,022.6,13.4,0000.0,0007.33,0004.12,0003.77
2024-01-05 20:35:00,SystemResetWarning,0821.2,5.00,000.00,021.3,020.7,000.0,029.6,022.7,13.5,0000.0,0007.36,0004.12,0003.78
2024-01-05 20:36:00,SystemResetWarning,0821.2,5.00,000.00,021.3,020.7,000.0,029.6,022.7,13.5,0000.0,0007.22,0004.12,0003.77
2024-01-05 20:37:00,SystemResetWarning,0821.2,5.00,000.00,021.4,020.7,000.0,029.6,022.6,13.5,0000.0,0006.78,0004.12,0003.77
2024-01-05 20:38:00,SystemResetWarning,0821.2,5.00,000.00,021.4,020.7,000.0,029.6,022.6,13.4,0000.0,0006.89,0004.14,0003.78
2024-01-05 20:39:00,SystemResetWarning,0821.2,4.99,000.00,021.4,020.8,000.0,029.6,022.7,13.4,0000.0,0007.05,0004.16,0003.79
2024-01-05 20:40:00,SystemResetWarning,0821.3,5.00,000.00,021.4,020.8,000.0,029.6,022.8,13.3,0000.0,0006.94,0004.15,0003.80
2024-01-05 20:41:00,SystemResetWarning,0821.3,5.00,000.00,021.4,020.8,000.0,029.6,022.8,13.3,0000.0,0006.83,0004.13,0003.81
2024-01-05 20:42:00,SystemResetWarning,0821.2,5.00,000.00,021.4,020.9,000.0,029.6,022.8,13.2,0000.0,0006.80,0004.14,0003.81
2024-01-05 20:43:00,SystemResetWarning,0821.3,5.00,000.00,021.4,020.9,000.0,029.6,022.8,13.2,0000.0,0006.93,0004.15,0003.82
2024-01-05 20:44:00,SystemResetWarning,0821.2,5.00,000.00,021.4,020.9,000.0,029.7,022.8,13.2,0000.0,0007.01,0004.17,0003.82
2024-01-05 20:45:00,SystemResetWarning,0821.2,5.00,000.00,021.5,021.0,000.0,029.7,022.8,13.2,0000.0,0006.98,0004.19,0003.81
2024-01-05 20:46:00,SystemResetWarning,0821.2,5.00,000.00,021.5,021.0,000.0,029.7,022.9,13.2,0000.0,0007.06,0004.18,0003.80
2024-01-05 20:47:00,SystemResetWarning,0821.2,5.00,000.00,021.5,021.0,000.0,029.7,022.9,13.2,0000.0,0007.66,0004.20,0003.80
2024-01-05 20:48:00,SystemResetWarning,0821.2,5.00,000.00,021.5,021.0,000.0,029.7,022.9,13.3,0000.0,0007.64,0004.20,0003.81
2024-01-05 20:49:00,SystemResetWarning,0821.2,5.00,000.00,021.5,021.1,000.0,029.7,023.0,13.2,0000.0,0007.52,0004.16,0003.79
2024-01-05 20:50:00,SystemResetWarning,0821.2,5.00,000.00,021.6,021.1,000.0,029.7,023.0,13.2,0000.0,0007.59,0004.14,0003.77
2024-01-05 20:51:00,SystemResetWarning,0821.3,4.99,000.00,021.6,021.1,000.0,029.8,023.0,13.2,0000.0,0008.39,0004.15,0003.76
2024-01-05 20:52:00,SystemResetWarning,0821.3,4.99,000.00,021.6,021.1,000.0,029.8,023.0,13.1,0000.0,0008.26,0004.11,0003.74
2024-01-05 20:53:00,SystemResetWarning,0821.3,5.00,000.00,021.6,021.1,000.0,029.8,023.0,13.1,0000.0,0008.23,0004.10,0003.73
2024-01-05 20:54:00,SystemResetWarning,0821.3,5.00,000.00,021.6,021.1,000.0,029.8,023.0,13.1,0000.0,0008.21,0004.08,0003.73
2024-01-05 20:55:00,SystemResetWarning,0821.2,5.00,000.00,021.7,021.1,000.0,029.8,023.0,13.0,0000.0,0008.17,0004.08,0003.73
2024-01-05 20:56:00,SystemResetWarning,0821.3,5.00,000.00,021.7,021.1,000.0,029.8,023.0,13.0,0000.0,0008.19,0004.08,0003.73
2024-01-05 20:57:00,SystemResetWarning,0821.2,5.01,000.00,021.7,021.1,000.0,029.8,023.0,12.9,0000.0,0008.30,0004.09,0003.73
2024-01-05 20:58:00,SystemResetWarning,0821.3,5.00,000.00,021.7,021.1,000.0,029.9,023.0,12.9,0000.0,0007.86,0004.08,0003.73
2024-01-05 20:59:00,SystemResetWarning,0821.3,5.00,000.00,021.7,021.1,000.0,029.9,023.0,12.8,0000.0,0008.11,0004.08,0003.72
